Regional Weather Roundup
Issued by NWS Charleston, SC

Current Version | Previous Version | Graphics & Text | Print | Product List | Glossary On
Versions: 1 2 3 4 5 6 7 8 9 10 11 12 13 14 15 16 17 18 19 20 21 22 23 24 25 26 27 28 29 30 31 32 33 34 35 36 37 38 39 40 41 42 43 44 45 46 47 48 49 50
329
ASUS42 KCHS 181412
RWRCHS

REGIONAL WEATHER ROUNDUP
NATIONAL WEATHER SERVICE CHARLESTON SC
900 AM EST SAT NOV 18 2017

NOTE: "FAIR" INDICATES FEW OR NO CLOUDS BELOW 12,000 FEET WITH NO
SIGNIFICANT WEATHER AND/OR OBSTRUCTIONS TO VISIBILITY.

NOT ALL STATIONS ARE QUALITY CONTROLLED. USE DATA WITH CAUTION...
ESPECIALLY DEWPOINT OBSERVATIONS.

SCZ027-030-031-034>040-042>050-181500-
...SOUTHEAST SOUTH CAROLINA...

CITY           SKY/WX    TMP DP  RH WIND       PRES   REMARKS
N CHARLESTON   MOSUNNY   60  57  89 SE6       30.04F
WATERFRONT PRK NOT AVBL
JOHNS ISLAND   FAIR      63  61  94 CALM      30.05F
PINOPOLIS        N/A     54  52  94 SE6       29.98S
MONCKS CORNER  FAIR      55  52  88 SE3       30.05F FOG
SUMMERVILLE    FAIR      50  46  87 CALM      30.06F
BEAUFORT MCAS  MOSUNNY   61  58  90 CALM      30.05F
BEAUFORT ARPT  FAIR      59  55  88 CALM      30.05S FOG
HILTON HEAD IS MOSUNNY   64  59  82 NE3       30.06S
WALTERBORO     MOSUNNY   54  50  87 SE3       30.06F
ALLENDALE      FAIR      54  50  87 CALM      30.04F

...SOUTHERN MIDLANDS AND PEE DEE...

CITY           SKY/WX    TMP DP  RH WIND       PRES   REMARKS
GEORGETOWN     FAIR      61  61 100 SE3       30.06F
KINGSTREE      FAIR      46  45  93 CALM      30.06F
ORANGEBURG     SUNNY     52  46  80 CALM      30.06S
BARNWELL         N/A     52  48  87 CALM      30.05F
AIKEN          CLOUDY    50  46  87 SE6       30.08S
MANNING        FAIR      46  45  93 MISG      30.06S
COLUMBIA       PTSUNNY   48  44  86 CALM      30.05F
SUMTER         MOSUNNY   52  45  76 S3        30.03F
FLORENCE       SUNNY     49  44  83 CALM      30.06F
MYRTLE BEACH   MOSUNNY   63  56  78 SE9       30.07F
N MYRTLE BEACH SUNNY     62  56  80 SE6       30.06S

$$

GAZ063-065-086>088-099>101-113>116-118-119-134>141-150-181500-
...SOUTHEAST GEORGIA...

CITY           SKY/WX    TMP DP  RH WIND       PRES   REMARKS
SAVANNAH ARPT  MOSUNNY   61  57  87 E3        30.06S
HUNTER AAF     SUNNY     63  59  89 E5        30.03S
FORT STEWART   SUNNY     58  52  82 CALM      30.03F
STATESBORO     SUNNY     56  49  78 S3        30.06S
SYLVANIA       SUNNY     54  52  93 CALM      30.06F
CLAXTON        FAIR      56  51  85 CALM      30.06F

...CSRA...CENTRAL AND FAR SOUTHEAST GEORGIA...

CITY           SKY/WX    TMP DP  RH WIND       PRES   REMARKS
THOMSON        SUNNY     48  44  85 CALM      30.11S
AUGUSTA-BUSH   SUNNY     48  44  86 CALM      30.06S
AUGUSTA-DANIEL SUNNY     52  46  80 VRB3      30.06S
SWAINSBORO     FAIR      57  54  88 NE5       30.06F
VIDALIA        SUNNY     59  54  82 SE3       30.06S
EASTMAN        CLOUDY    49  44  81 CALM      30.08F HAZE
HAZLEHURST     FAIR      61  52  73 CALM      30.05S
ALMA           SUNNY     59  56  89 SE3       30.05S
WAYCROSS       SUNNY     59  56  90 SE3       30.06S
JESUP          FAIR      57  54  88 CALM      30.06S
BAXLEY         FAIR      55  55 100 SE3       30.05F
BRUNSWICK      CLOUDY    61  59  94 CALM      30.07R
SAINT SIMONS   PTSUNNY   65  62  90 CALM      30.06R

$$

SCZ027-028-034-036>038-045-046-048>050-GAZ119-141-181500-
...LAKE AND SUPPLEMENTAL COASTAL OBSERVATIONS...

STATION/POSITION TIME  TEMP    WIND        PRES    WAVE   SWELL
                       AIR SEA DIR/SP/G            HT/PER HT/PER/DIR
                 (UTC) (F)     (DEG/KT/KT) (MB)    (FT/S) (FT/S/D)
WINYAH BAY       1245   50     320/  1     1018.0
LAKE MURRAY      1320   56     180/  7/  9 1016.9
ACE BASIN NERRS  1245   52        CALM     1018.0
FORT PULASKI     NOT AVBL
SAPELO ISLAND    1300   59      30/  3     1017.0

$$

ANZ835-935-AMZ111-154-330-350-352-354-370-450-454-472-181500-
...C-MAN AND BUOY OBSERVATIONS...

STATION/POSITION TIME  TEMP    WIND        PRES    WAVE   SWELL
                       AIR SEA DIR/SP/G            HT/PER HT/PER/DIR
                 (UTC) (F)     (DEG/KT/KT) (MB)    (FT/S) (FT/S/D)
BUOY 41004       1350   71 76  130/ 10/ 14 1017.2F   3/ 8   3/ 90/ 8
BUOY 41008       1350   71 68  170/  2/  2 1017.2R   3/ 8   3/ 80/ 8
FOLLY BEACH CMAN 1400   63      60/  4/  5 1018.1F
CAPERS NEARSHORE 1308   62 63   80/  4/  8 1017.6S
FRIPP NEARSHORE  1308   63 63   60/  4/ 10 1017.1R


STATION/POSITION TIME  TEMP    WIND        PRES    WAVE   SWELL
                       AIR SEA DIR/SP/G            HT/PER HT/PER/DIR
                 (UTC) (F)     (DEG/KT/KT) (MB)    (FT/S) (FT/S/D)
5E ST. MARYS GA  1400      68                N/A     3/11   2/ 80/11
FRYING PAN BUOY  1350   65 71   70/  4/  6 1018.1F   3/ 8   3/100/ 8
BUOY 41025       1400   60      10/  4/  6 1018.3
CAPE LOOKOUT NC  1300   56     360/  3/  3 1018.9R
BUOY 41002       1350   69 77   70/  4/  6 1019.4R   6/ 8   7/ 30/ 8
BUOY 41010       NOT AVBL
ST AUGUSTINE FL  1400   66 67   30/  1/  1 1018.1R


$$




USA.gov is the U.S. government's official web portal to all federal, state and local government web resources and services.